STARLINK-2557, 48299

Orbit data source: Space-Track

STARLINK-2557, 48299 is a payload satellite owned by SpaceX/Seattle (US) in LEO that was launched on Thu, 29 Apr 2021 UTC via an FALCON 9 launch vehicle from the Air Force Eastern Test Range (AFETR). Payload-class satellites include a variety of spacecraft equipped with specific instruments for various scientific and technological missions. These include communications satellites like Starlink; space stations such as the ISS; scientific satellites like the Hubble; Earth observation satellites from companies like Planet Labs, Umbra, and HawkEye 360; GPS; miniature CubeSats for education and research; and military/defense satellites.

Loading next visibility...
Identifier
48299, 2021-036Z
Orbit
LEO
Country
Flag of USUS
Related business
Manufacturer
SpaceX/Seattle
Mission
Operational Commercial Communications
Bus & Motor
STARLINK, Unknown motor
Mass
260 kg wet, ~248 kg dry
Launch date (UTC)
2021-04-29 (4 years ago)
Launch vehicle
FALCON 9
Launch site
Air Force Eastern Test Range (AFETR)
Object type
Payload
Rocket body
Debris
Shape & HBR
Box + 1 Pan, 10.1 m
Radar Cross Section
13.562 m², Large (>1 m²)

Expand to show TLE details & history
Last TLE update: 15 hours ago

TLE from 15 hours ago
0 STARLINK-2557
1 48299U 21036Z   25291.22541872 -.00009048  00000-0 -58890-3 0  9990
2 48299  53.0585   1.1622 0002730 109.5856 250.5428 15.06418338246847
Epoch: 2025-10-18T05:24Z
TLE epoch observation values (Epoch: 2025-10-18T05:24:36.177Z)
Latitude
-0.00001°
Longitude
-106.94804°
Altitude
548.665 km
Speed
7.588 km/s
True Right ascension
00h 04m 38s
True Declination
0° 00' 00"
Sunlit
Object was in full shadow at epoch
Visualization orbit readout
Latitude
Unknown
Longitude
Unknown
Altitude
Unknown
Speed
Unknown
Apparent Right ascension
Unknown
Apparent Declination
Unknown
Sunlit
N/A
Visualization observer readout
Local Sidereal Time
15:38:29
Azimuth
Unknown
Elevation
Unknown
Doppler factor
Unknown
Orbital elements
Apogee altitude
549.316 km
Perigee altitude
545.535 km
Semi-major axis
6,925.562 km
Eccentricity
0.00027
Inclination
53.0585°
RAAN
1.1622°
Arg. of periapsis
109.5856°
True anomaly
250.51331°
Mean anomaly
250.5428°
Eccentric anomaly
250.52805°
Mean motion
3.76583 °/min
Orbital period
95.6 mins
BSTAR
-0.0005889
Loading maneuver chart data...
Computing Atmospheric mass density...
Loading historical data...
Loading historical data...
Loading historical data...
Loading historical data...
Loading historical data...
Loading historical data...
Loading historical data...

Documentation

Showing up to 5 results
|